This demonstration page uses our WeatherBlox Daily Observations layout. Learn more.

Left ArrowRight Arrow

41.12389, -100.76542

Hourly Observations for November 27, 2016

Temp ( °F °C ) Dew Point ( °F °C ) Humidity (%) Winds ( mph kmh ) Pressure ( in mb ) Visibility ( mi km ) Precip ( " mm )
12:53 am 00:53 Clear 24 -4.4 19 -7.2 81 81 Calm 29.88 1012 10 16 0.00 0.00
1:53 am 01:53 Clear 24 -4.4 21 -6.1 88 88 E 3 6 29.82 1010 10 16 0.00 0.00
2:53 am 02:53 Clear 26 -3.3 22 -5.6 84 84 ESE 3 6 29.79 1009 10 16 0.00 0.00
3:53 am 03:53 Clear 27 -2.8 23 -5 85 85 ESE 7 11 29.72 1006 10 16 0.00 0.00
4:53 am 04:53 Clear 28 -2.2 23 -5 81 81 E 8 13 29.67 1005 10 16 0.00 0.00
5:53 am 05:53 Clear 30 -1.1 24 -4.4 79 79 ESE 10 17 29.63 1003 10 16 0.00 0.00
6:53 am 06:53 Clear 30 -1.1 25 -3.9 82 82 ESE 9 15 29.59 1002 10 16 0.00 0.00
7:08 am 07:08 Mostly Cloudy 30 -1 25 -4 80 80 E 9 15 29.65 1004 10 16 0.00 0.00
7:16 am 07:16 Mostly Cloudy 31 -0.6 25 -3.9 79 79 E 12 19 29.65 1004 10 16 0.00 0.00
7:53 am 07:53 Mostly Cloudy 32 0 26 -3.3 79 79 E 7 11 29.58 1002 10 16 0.00 0.00
8:38 am 08:38 Cloudy 34 1.1 28 -2.2 79 79 ESE 6 9 29.59 1002 10 16 0.00 0.00
8:53 am 08:53 Cloudy 35 1.7 30 -1.1 82 82 ESE 6 9 29.52 1000 10 16 0.00 0.00
9:53 am 09:53 Cloudy 38 3.3 35 1.7 89 89 ESE 12 19 29.48 998 10 16 0.00 0.00
10:53 am 10:53 Cloudy 42 5.6 38 3.3 85 85 ESE 14 22 29.41 996 10 16 0.00 0.00
11:30 am 11:30 Cloudy 45 7 39 4 81 81 ESE 14 22 29.35 994 10 16 0.00 0.00
11:53 am 11:53 Mostly Cloudy 50 10 44 6.7 80 80 SSE 9 15 29.33 993 10 16 0.00 0.00
12:42 pm 12:42 Mostly Cloudy with Light Rain 50 10 44 6.7 80 80 S 9 15 29.23 990 9 14 0.00 0.03
12:53 pm 12:53 Cloudy with Light Rain 50 10 45 7.2 83 83 VRB 6 9 29.28 991 10 16 0.01 0.25
1:00 pm 13:00 Cloudy 50 10 45 7.2 83 83 S 7 11 29.21 989 10 16 0.00 0.03
1:53 pm 13:53 Cloudy 50 10 45 7.2 83 83 SW 8 13 29.23 990 10 16 0.00 0.03
2:09 pm 14:09 Cloudy 51 10.6 45 7.2 80 80 SW 9 15 29.21 989 10 16 0.00 0.00
2:35 pm 14:35 Mostly Cloudy 48 8.9 40 4.4 74 74 WNW 22 35 29.23 990 10 16 0.00 0.00
2:53 pm 14:53 Cloudy 46 7.8 38 3.3 73 73 WNW 20 31 29.23 990 9 14 0.00 0.00
3:53 pm 15:53 Mostly Cloudy 44 6.7 34 1.1 68 68 W 16 26 29.21 989 10 16 0.00 0.00
4:53 pm 16:53 Partly Cloudy 44 6.7 36 2.2 73 73 W 20 31 29.23 990 10 16 0.00 0.00
5:53 pm 17:53 Cloudy 43 6.1 39 3.9 86 86 WNW 8 13 29.21 989 10 16 0.01 0.25
6:53 pm 18:53 Cloudy 43 6.1 38 3.3 82 82 W 8 13 29.21 989 10 16 0.00 0.00
7:53 pm 19:53 Cloudy 45 7.2 36 2.2 71 71 WSW 18 30 29.20 989 10 16 0.00 0.00
8:53 pm 20:53 Mostly Cloudy 45 7.2 33 0.6 63 63 WSW 20 31 29.20 989 10 16 0.00 0.00
9:53 pm 21:53 Partly Cloudy 45 7.2 32 0 61 61 WSW 21 33 29.19 989 10 16 0.00 0.00
10:53 pm 22:53 Mostly Clear 45 7.2 31 -0.6 58 58 WSW 17 28 29.19 988 10 16 0.00 0.00
11:53 pm 23:53 Mostly Cloudy 44 6.7 32 0 63 63 W 16 26 29.20 989 10 16 0.00 0.00

Powered by AerisWeather